INMARSAT 5-F4

Last updated on Wed Nov 20 2024 00:02:42 GMT+0000 (Coordinated Universal Time)

1 42698U 17025A 24324.01964539 .00000077 00000+0 00000+0 0 9998 2 42698 0.0133 305.9724 0000378 322.9433 213.2179 1.00270129 27514
UTC large
Height (km)
Speed (km/s)
/
Latitude / Longitude
Inclination (degrees)
Orbital Period (minutes)
Azimuth
Elevation
Range (km)
Doppler Factor

Next 0 passes for location: London (51.5072 / 0.1276)

Sorry there are no passes over London.